Regional Weather Roundup
Issued by NWS Cleveland, OH

Home | Current Version | Previous Version | Text Only | Print | Product List | Glossary Off
Versions: 1 2 3 4 5 6 7 8 9 10 11 12 13 14 15 16 17 18 19 20 21 22 23 24 25 26 27 28 29 30 31 32 33 34 35 36 37 38 39 40 41 42 43 44 45 46 47 48 49 50

000
ASUS41 KCLE 230002
RWRCLE
OHIO REGIONAL WEATHER ROUNDUP
NATIONAL WEATHER SERVICE CLEVELAND, OH
800 PM EDT FRI MAY 22 2015

NOTE: "FAIR" INDICATES FEW OR NO CLOUDS BELOW 12,000 FEET WITH NO
SIGNIFICANT WEATHER AND/OR OBSTRUCTIONS TO VISIBILITY.

OHZ001>008-015>018-024>027-034-035-043-044-230100-
   NORTHWEST OHIO

CITY           SKY/WX    TMP DP  RH WIND       PRES   REMARKS
DEFIANCE       PTCLDY    67  35  30 NW3       30.23S
FINDLAY        PTCLDY    67  30  25 N9        30.21S
TOLEDO EXPRESS CLEAR     66  31  27 N7        30.22S
TOLEDO EXEC    CLEAR     64  33  31 NE8       30.24R
LIMA           MOCLDY    67  35  30 N6        30.23R
$$

OHZ009>014-019>023-028>033-038-089-230100-
   NORTHEAST OHIO

CITY           SKY/WX    TMP DP  RH WIND       PRES   REMARKS
CLE-HOPKINS    CLEAR     56  31  38 NE8       30.28R
CLE-LAKEFRONT  CLEAR     56  33  42 NE13      30.26S
CUY CO. ARPT   PTCLDY    55  30  38 E9        30.28R
LORAIN-ELYRIA  CLEAR     57  33  40 E9        30.26R
ASHTABULA      CLEAR     53  22  29 CALM      30.29R
AKRON-CANTON   PTCLDY    58  32  37 N13       30.25R
WOOSTER        CLEAR     60  30  32 N7        30.25R
MANSFIELD      CLEAR     60  31  33 NE10      30.24R
YOUNGSTOWN     PTCLDY    53  27  36 N8        30.28R
$$

OHZ042-051>053-060>062-070>072-077>081-230100-
  SOUTHWEST OHIO

CITY           SKY/WX    TMP DP  RH WIND       PRES   REMARKS
CINC-COVINGTON CLOUDY    70  46  42 W6        30.22S
CINC-LUNKEN    MOCLDY    70  46  42 SW8       30.22R
HAMILTON       MOCLDY    72  46  39 NW6       30.22R
DAYTON         PTCLDY    69  44  40 N9        30.23R
WRIGHT-PAT AFB PTCLDY    70  42  36 NW9       30.21R
DAYTON GENERAL MOCLDY    71  42  35 NW8       30.21R
WILMINGTON     MOCLDY    70  43  37 W9        30.21R
$$

OHZ036-037-039>041-045>050-054>059-063>069-073>076-082>088-230100-
  CENTRAL AND SOUTHEAST OHIO

CITY           SKY/WX    TMP DP  RH WIND       PRES   REMARKS
COLUMBUS       MOCLDY    68  42  38 N12       30.20R
OSU AIRPORT    PTCLDY    68  37  32 N10       30.21R
BOLTON FIELD   NOT AVBL
RICKENBACK AFB NOT AVBL
NEWARK         PTCLDY    68  40  35 VRB3      30.20R
MARION         CLEAR     68  29  23 N9        30.22R
LANCASTER      MOCLDY    65  58  78 CALM      30.21R
ZANESVILLE     PTCLDY    66  42  41 N7        30.21R
NEW PHILLY     CLEAR     65  30  27 N5        30.24R
$$



USA.gov is the U.S. government's official web portal to all federal, state and local government web resources and services.